Time,TemperatureF,DewpointF,PressureIn,WindDirection,WindDirectionDegrees,WindSpeedMPH,WindSpeedGustMPH,Humidity,HourlyPrecipIn,Conditions,Clouds,dailyrainin,SolarRadiationWatts/m^2,SoftwareType,DateUTC
2013-07-09 00:11:00,74.0,67.0,-100.00,East,97,4.0,8.0,79,0.00,,,0.00,0.000000,,2013-07-09 05:11:00,
2013-07-09 00:22:00,74.0,67.0,-100.00,East,97,4.0,8.0,79,0.00,,,0.00,0.000000,,2013-07-09 05:22:00,
2013-07-09 00:33:00,74.0,67.0,-100.00,East,97,4.0,8.0,79,0.00,,,0.00,0.000000,,2013-07-09 05:33:00,
2013-07-09 00:42:00,74.0,67.0,-100.00,East,97,4.0,8.0,79,0.00,,,0.00,0.000000,,2013-07-09 05:42:00,
2013-07-09 00:51:00,73.0,67.0,-100.00,East,85,5.0,8.0,81,0.00,,,0.00,0.000000,,2013-07-09 05:51:00,
2013-07-09 01:11:00,73.0,67.0,-100.00,East,85,5.0,8.0,81,0.00,,,0.00,0.000000,,2013-07-09 06:11:00,
2013-07-09 01:22:00,73.0,67.0,-100.00,East,85,5.0,8.0,81,0.00,,,0.00,0.000000,,2013-07-09 06:22:00,
2013-07-09 01:33:00,73.0,67.0,-100.00,East,85,5.0,8.0,81,0.00,,,0.00,0.000000,,2013-07-09 06:33:00,
2013-07-09 01:43:00,73.0,67.0,-100.00,East,85,5.0,8.0,81,0.00,,,0.00,0.000000,,2013-07-09 06:43:00,
2013-07-09 01:51:00,73.0,68.0,-100.00,East,98,6.0,9.0,84,0.00,,,0.00,0.000000,,2013-07-09 06:51:00,
2013-07-09 02:12:00,73.0,68.0,-100.00,East,98,6.0,9.0,84,0.00,,,0.00,0.000000,,2013-07-09 07:12:00,
2013-07-09 02:22:00,73.0,68.0,-100.00,East,98,6.0,9.0,84,0.00,,,0.00,0.000000,,2013-07-09 07:22:00,
2013-07-09 02:34:00,73.0,68.0,-100.00,East,98,6.0,9.0,84,0.00,,,0.00,0.000000,,2013-07-09 07:34:00,
2013-07-09 02:43:00,73.0,68.0,-100.00,East,98,6.0,9.0,84,0.00,,,0.00,0.000000,,2013-07-09 07:43:00,
2013-07-09 02:51:00,73.0,69.0,-100.00,East,88,5.0,8.0,87,0.00,,,0.00,0.000000,,2013-07-09 07:51:00,
2013-07-09 03:11:00,73.0,69.0,-100.00,East,88,5.0,8.0,87,0.00,,,0.00,0.000000,,2013-07-09 08:11:00,
2013-07-09 03:22:00,73.0,69.0,-100.00,East,88,5.0,8.0,87,0.00,,,0.00,0.000000,,2013-07-09 08:22:00,
2013-07-09 03:33:00,73.0,69.0,-100.00,East,88,5.0,8.0,87,0.00,,,0.00,0.000000,,2013-07-09 08:33:00,
2013-07-09 03:43:00,73.0,69.0,-100.00,East,88,5.0,8.0,87,0.00,,,0.00,0.000000,,2013-07-09 08:43:00,
2013-07-09 03:51:00,74.0,69.0,-100.00,SE,134,5.0,10.0,85,0.00,,,0.00,0.000000,,2013-07-09 08:51:00,
2013-07-09 04:12:00,74.0,69.0,-100.00,SE,134,5.0,10.0,85,0.00,,,0.00,0.000000,,2013-07-09 09:12:00,
2013-07-09 04:22:00,74.0,69.0,-100.00,SE,134,5.0,10.0,85,0.00,,,0.00,0.000000,,2013-07-09 09:22:00,
2013-07-09 04:34:00,74.0,69.0,-100.00,SE,134,5.0,10.0,85,0.00,,,0.00,0.000000,,2013-07-09 09:34:00,
2013-07-09 04:42:00,74.0,69.0,-100.00,SE,134,5.0,10.0,85,0.00,,,0.00,0.000000,,2013-07-09 09:42:00,
2013-07-09 04:51:00,65.0,64.0,-100.00,West,268,20.0,38.0,97,0.36,,,0.36,0.000000,,2013-07-09 09:51:00,
2013-07-09 05:33:00,65.0,64.0,-100.00,West,268,20.0,38.0,97,0.36,,,0.36,0.000000,,2013-07-09 10:33:00,
2013-07-09 05:42:00,65.0,64.0,-100.00,West,268,20.0,38.0,97,0.36,,,0.36,0.000000,,2013-07-09 10:42:00,
2013-07-09 05:51:00,67.0,67.0,-100.00,South,191,8.0,15.0,100,0.21,,,0.57,0.000000,,2013-07-09 10:51:00,
2013-07-09 06:11:00,67.0,67.0,-100.00,South,191,8.0,15.0,100,0.21,,,0.57,0.000000,,2013-07-09 11:11:00,
2013-07-09 06:22:00,67.0,67.0,-100.00,South,191,8.0,15.0,100,0.21,,,0.57,0.000000,,2013-07-09 11:22:00,
2013-07-09 06:33:00,67.0,67.0,-100.00,South,191,8.0,15.0,100,0.21,,,0.57,0.000000,,2013-07-09 11:33:00,
2013-07-09 06:42:00,67.0,67.0,-100.00,South,191,8.0,15.0,100,0.21,,,0.57,0.000000,,2013-07-09 11:42:00,
2013-07-09 06:51:00,66.0,66.0,-100.00,SSE,161,5.0,13.0,100,0.01,,,0.58,7.000000,,2013-07-09 11:51:00,
2013-07-09 07:11:00,66.0,66.0,-100.00,SSE,161,5.0,13.0,100,0.01,,,0.58,7.000000,,2013-07-09 12:11:00,
2013-07-09 07:22:00,66.0,66.0,-100.00,SSE,161,5.0,13.0,100,0.01,,,0.58,7.000000,,2013-07-09 12:22:00,
2013-07-09 07:33:00,66.0,66.0,-100.00,SSE,161,5.0,13.0,100,0.01,,,0.58,7.000000,,2013-07-09 12:33:00,
2013-07-09 07:43:00,66.0,66.0,-100.00,SSE,161,5.0,13.0,100,0.01,,,0.58,7.000000,,2013-07-09 12:43:00,
2013-07-09 07:51:00,68.0,68.0,-100.00,WSW,256,7.0,10.0,100,0.01,,,0.59,62.000000,,2013-07-09 12:51:00,
2013-07-09 08:11:00,68.0,68.0,-100.00,WSW,256,7.0,10.0,100,0.01,,,0.59,62.000000,,2013-07-09 13:11:00,
2013-07-09 08:22:00,68.0,68.0,-100.00,WSW,256,7.0,10.0,100,0.01,,,0.59,62.000000,,2013-07-09 13:22:00,
2013-07-09 08:33:00,68.0,68.0,-100.00,WSW,256,7.0,10.0,100,0.01,,,0.59,62.000000,,2013-07-09 13:33:00,
2013-07-09 08:43:00,68.0,68.0,-100.00,WSW,256,7.0,10.0,100,0.01,,,0.59,62.000000,,2013-07-09 13:43:00,
2013-07-09 08:51:00,70.0,68.0,-100.00,West,280,10.0,15.0,93,0.00,,,0.59,111.000000,,2013-07-09 13:51:00,
2013-07-09 09:11:00,70.0,68.0,-100.00,West,280,10.0,15.0,93,0.00,,,0.59,111.000000,,2013-07-09 14:11:00,
2013-07-09 09:22:00,70.0,68.0,-100.00,West,280,10.0,15.0,93,0.00,,,0.59,111.000000,,2013-07-09 14:22:00,
2013-07-09 09:34:00,70.0,68.0,-100.00,West,280,10.0,15.0,93,0.00,,,0.59,111.000000,,2013-07-09 14:34:00,
2013-07-09 09:43:00,70.0,68.0,-100.00,West,280,10.0,15.0,93,0.00,,,0.59,111.000000,,2013-07-09 14:43:00,
2013-07-09 09:51:00,72.0,67.0,-100.00,WNW,287,13.0,18.0,84,0.00,,,0.59,261.000000,,2013-07-09 14:51:00,
2013-07-09 10:12:00,72.0,67.0,-100.00,WNW,287,13.0,18.0,84,0.00,,,0.59,261.000000,,2013-07-09 15:12:00,
2013-07-09 10:22:00,72.0,67.0,-100.00,WNW,287,13.0,18.0,84,0.00,,,0.59,261.000000,,2013-07-09 15:22:00,
2013-07-09 10:33:00,72.0,67.0,-100.00,WNW,287,13.0,18.0,84,0.00,,,0.59,261.000000,,2013-07-09 15:33:00,
2013-07-09 10:43:00,72.0,67.0,-100.00,WNW,287,13.0,18.0,84,0.00,,,0.59,261.000000,,2013-07-09 15:43:00,
2013-07-09 10:51:00,76.0,69.0,-100.00,WNW,285,15.0,24.0,78,0.00,,,0.59,668.000000,,2013-07-09 15:51:00,
2013-07-09 11:22:00,76.0,69.0,-100.00,WNW,285,15.0,24.0,78,0.00,,,0.59,668.000000,,2013-07-09 16:22:00,
2013-07-09 11:34:00,76.0,69.0,-100.00,WNW,285,15.0,24.0,78,0.00,,,0.59,668.000000,,2013-07-09 16:34:00,
2013-07-09 11:43:00,76.0,69.0,-100.00,WNW,285,15.0,24.0,78,0.00,,,0.59,668.000000,,2013-07-09 16:43:00,
2013-07-09 11:51:00,77.0,67.0,-100.00,West,271,13.0,25.0,72,0.00,,,0.59,850.000000,,2013-07-09 16:51:00,
2013-07-09 12:11:00,77.0,67.0,-100.00,West,271,13.0,25.0,72,0.00,,,0.59,850.000000,,2013-07-09 17:11:00,
2013-07-09 12:22:00,77.0,67.0,-100.00,West,271,13.0,25.0,72,0.00,,,0.59,850.000000,,2013-07-09 17:22:00,
2013-07-09 12:35:00,77.0,67.0,-100.00,West,271,13.0,25.0,72,0.00,,,0.59,850.000000,,2013-07-09 17:35:00,
2013-07-09 12:45:00,77.0,67.0,-100.00,West,271,13.0,25.0,72,0.00,,,0.59,850.000000,,2013-07-09 17:45:00,
2013-07-09 12:51:00,80.0,68.0,-100.00,West,280,12.0,21.0,66,0.00,,,0.59,938.000000,,2013-07-09 17:51:00,
2013-07-09 13:11:00,80.0,68.0,-100.00,West,280,12.0,21.0,66,0.00,,,0.59,938.000000,,2013-07-09 18:11:00,
2013-07-09 13:22:00,80.0,68.0,-100.00,West,280,12.0,21.0,66,0.00,,,0.59,938.000000,,2013-07-09 18:22:00,
2013-07-09 13:32:00,80.0,68.0,-100.00,West,280,12.0,21.0,66,0.00,,,0.59,938.000000,,2013-07-09 18:32:00,
2013-07-09 13:43:00,80.0,68.0,-100.00,West,280,12.0,21.0,66,0.00,,,0.59,938.000000,,2013-07-09 18:43:00,
2013-07-09 13:51:00,82.0,67.0,-100.00,WNW,303,13.0,19.0,61,0.00,,,0.59,931.000000,,2013-07-09 18:51:00,
2013-07-09 14:22:00,82.0,67.0,-100.00,WNW,303,13.0,19.0,61,0.00,,,0.59,931.000000,,2013-07-09 19:22:00,
2013-07-09 14:33:00,82.0,67.0,-100.00,WNW,303,13.0,19.0,61,0.00,,,0.59,931.000000,,2013-07-09 19:33:00,
2013-07-09 14:42:00,82.0,67.0,-100.00,WNW,303,13.0,19.0,61,0.00,,,0.59,931.000000,,2013-07-09 19:42:00,
2013-07-09 14:51:00,83.0,69.0,-100.00,NW,308,12.0,19.0,62,0.00,,,0.59,992.000000,,2013-07-09 19:51:00,
2013-07-09 15:22:00,83.0,69.0,-100.00,NW,308,12.0,19.0,62,0.00,,,0.59,992.000000,,2013-07-09 20:22:00,
2013-07-09 15:32:00,83.0,69.0,-100.00,NW,308,12.0,19.0,62,0.00,,,0.59,992.000000,,2013-07-09 20:32:00,
2013-07-09 15:42:00,83.0,69.0,-100.00,NW,308,12.0,19.0,62,0.00,,,0.59,992.000000,,2013-07-09 20:42:00,
2013-07-09 15:51:00,83.0,67.0,-100.00,NW,318,12.0,19.0,59,0.00,,,0.59,809.000000,,2013-07-09 20:51:00,
2013-07-09 16:11:00,83.0,67.0,-100.00,NW,318,12.0,19.0,59,0.00,,,0.59,809.000000,,2013-07-09 21:11:00,
2013-07-09 16:22:00,83.0,67.0,-100.00,NW,318,12.0,19.0,59,0.00,,,0.59,809.000000,,2013-07-09 21:22:00,
2013-07-09 16:32:00,83.0,67.0,-100.00,NW,318,12.0,19.0,59,0.00,,,0.59,809.000000,,2013-07-09 21:32:00,
2013-07-09 16:42:00,83.0,67.0,-100.00,NW,318,12.0,19.0,59,0.00,,,0.59,809.000000,,2013-07-09 21:42:00,
2013-07-09 16:51:00,83.0,67.0,-100.00,NW,312,12.0,19.0,59,0.00,,,0.59,719.000000,,2013-07-09 21:51:00,
2013-07-09 17:11:00,83.0,67.0,-100.00,NW,312,12.0,19.0,59,0.00,,,0.59,719.000000,,2013-07-09 22:11:00,
2013-07-09 17:22:00,83.0,67.0,-100.00,NW,312,12.0,19.0,59,0.00,,,0.59,719.000000,,2013-07-09 22:22:00,
2013-07-09 17:33:00,83.0,67.0,-100.00,NW,312,12.0,19.0,59,0.00,,,0.59,719.000000,,2013-07-09 22:33:00,
2013-07-09 17:42:00,83.0,67.0,-100.00,NW,312,12.0,19.0,59,0.00,,,0.59,719.000000,,2013-07-09 22:42:00,
2013-07-09 17:51:00,81.0,65.0,-100.00,NW,312,14.0,21.0,59,0.00,,,0.59,660.000000,,2013-07-09 22:51:00,
2013-07-09 18:22:00,81.0,65.0,-100.00,NW,312,14.0,21.0,59,0.00,,,0.59,660.000000,,2013-07-09 23:22:00,
2013-07-09 18:33:00,81.0,65.0,-100.00,NW,312,14.0,21.0,59,0.00,,,0.59,660.000000,,2013-07-09 23:33:00,
2013-07-09 18:43:00,81.0,65.0,-100.00,NW,312,14.0,21.0,59,0.00,,,0.59,660.000000,,2013-07-09 23:43:00,
2013-07-09 18:51:00,81.0,67.0,-100.00,NW,308,15.0,20.0,62,0.00,,,-99.99,469.000000,,2013-07-09 23:51:00,
2013-07-09 19:11:00,81.0,67.0,-100.00,NW,308,15.0,20.0,62,0.00,,,-99.99,469.000000,,2013-07-10 00:11:00,
2013-07-09 19:22:00,81.0,67.0,-100.00,NW,308,15.0,20.0,62,0.00,,,-99.99,469.000000,,2013-07-10 00:22:00,
2013-07-09 19:33:00,81.0,67.0,-100.00,NW,308,15.0,20.0,62,0.00,,,-99.99,469.000000,,2013-07-10 00:33:00,
2013-07-09 19:42:00,81.0,67.0,-100.00,NW,308,15.0,20.0,62,0.00,,,-99.99,469.000000,,2013-07-10 00:42:00,
2013-07-09 19:51:00,77.0,67.0,-100.00,NNW,335,10.0,20.0,72,0.00,,,-99.99,220.000000,,2013-07-10 00:51:00,
2013-07-09 20:22:00,77.0,67.0,-100.00,NNW,335,10.0,20.0,72,0.00,,,-99.99,220.000000,,2013-07-10 01:22:00,
2013-07-09 20:33:00,77.0,67.0,-100.00,NNW,335,10.0,20.0,72,0.00,,,-99.99,220.000000,,2013-07-10 01:33:00,
2013-07-09 20:43:00,77.0,67.0,-100.00,NNW,335,10.0,20.0,72,0.00,,,-99.99,220.000000,,2013-07-10 01:43:00,
2013-07-09 20:51:00,73.0,65.0,-100.00,NNW,336,9.0,16.0,75,0.00,,,0.59,55.000000,,2013-07-10 01:51:00,
2013-07-09 21:11:00,73.0,65.0,-100.00,NNW,336,9.0,16.0,75,0.00,,,0.59,55.000000,,2013-07-10 02:11:00,
2013-07-09 21:22:00,73.0,65.0,-100.00,NNW,336,9.0,16.0,75,0.00,,,0.59,55.000000,,2013-07-10 02:22:00,
2013-07-09 21:34:00,73.0,65.0,-100.00,NNW,336,9.0,16.0,75,0.00,,,0.59,55.000000,,2013-07-10 02:34:00,
2013-07-09 21:43:00,73.0,65.0,-100.00,NNW,336,9.0,16.0,75,0.00,,,0.59,55.000000,,2013-07-10 02:43:00,
2013-07-09 21:51:00,70.0,62.0,-100.00,NNW,343,10.0,17.0,77,0.00,,,0.59,12.000000,,2013-07-10 02:51:00,
2013-07-09 22:11:00,70.0,62.0,-100.00,NNW,343,10.0,17.0,77,0.00,,,0.59,12.000000,,2013-07-10 03:11:00,
2013-07-09 22:22:00,70.0,62.0,-100.00,NNW,343,10.0,17.0,77,0.00,,,0.59,12.000000,,2013-07-10 03:22:00,
2013-07-09 22:32:00,70.0,62.0,-100.00,NNW,343,10.0,17.0,77,0.00,,,0.59,12.000000,,2013-07-10 03:32:00,
2013-07-09 22:43:00,70.0,62.0,-100.00,NNW,343,10.0,17.0,77,0.00,,,0.59,12.000000,,2013-07-10 03:43:00,
2013-07-09 22:51:00,68.0,61.0,-100.00,NNW,346,9.0,17.0,79,0.00,,,0.59,0.000000,,2013-07-10 03:51:00,
2013-07-09 23:11:00,68.0,61.0,-100.00,NNW,346,9.0,17.0,79,0.00,,,0.59,0.000000,,2013-07-10 04:11:00,
2013-07-09 23:22:00,68.0,61.0,-100.00,NNW,346,9.0,17.0,79,0.00,,,0.59,0.000000,,2013-07-10 04:22:00,
2013-07-09 23:32:00,68.0,61.0,-100.00,NNW,346,9.0,17.0,79,0.00,,,0.59,0.000000,,2013-07-10 04:32:00,
2013-07-09 23:43:00,68.0,61.0,-100.00,NNW,346,9.0,17.0,79,0.00,,,0.59,0.000000,,2013-07-10 04:43:00,
2013-07-09 23:51:00,65.0,59.0,-100.00,NNW,338,5.0,12.0,82,0.00,,,0.59,0.000000,,2013-07-10 04:51:00,